Weather History for KMVY - September, 2012

Change the Weather History Date:

Friday, September 14, 2012

  Actual Average Record
Temperature  
Mean Temperature 64 °F -  
Max Temperature 77 °F 73 °F 88 °F (1952)
Min Temperature 50 °F 56 °F 39 °F (1955)
Degree Days  
Heating Degree Days 2    
Growing Degree Days 14 (Base 50)    
Moisture  
Dew Point 53 °F    
Average Humidity 85    
Maximum Humidity 94    
Minimum Humidity 60    
Precipitation  
Precipitation 0.00 in - - ()
Sea Level Pressure  
Sea Level Pressure 30.24 in    
Wind  
Wind Speed 1 mph (SSW)    
Max Wind Speed 15 mph    
Max Gust Speed 20 mph    
Visibility 4 miles    
Events Fog    
Averages and records for this station are not official NWS values.
T = Trace of Precipitation, MM = Missing Value Source: NWS Daily Summary

Daily Weather History Graph

Daily Weather History Graph

Search for Another Location

Airport or City:

Trip Planner

Search our weather history database for the weather conditions in past years. The results will help you decide how hot, cold, wet, or windy it might be!

Date:

Astronomy

Sep. 14, 2012 Rise Set
Actual Time 6:22 AM EDT 6:52 PM EDT
Civil Twilight 5:54 AM EDT 7:20 PM EDT
Nautical Twilight 5:21 AM EDT 7:53 PM EDT
Astronomical Twilight 4:47 AM EDT 8:26 PM EDT
Moon 4:42 AM EDT (9/14) 5:47 PM EDT (9/14)
Length of Visible Light 13h 25m
Length of Day
12h 30m
Waning Crescent, 3% of the Moon is Illuminated
Sep 14
Waning Crescent
Sep 15
New
Sep 22
First Quarter
Sep 29
Full
Oct 8
Last Quarter

Hourly Weather History & Observations

Time (EDT) Temp. Dew Point Humidity Pressure Visibility Wind Dir Wind Speed Gust Speed Precip Events Conditions
12:00 AM 51.8 °F 48.2 °F 88% 30.30 in 0.8 mi Calm Calm - N/A   Mist
12:07 AM 50.0 °F 46.4 °F 87% 30.30 in 2.0 mi Calm Calm - N/A   Overcast
12:15 AM 50.0 °F 46.4 °F 87% 30.30 in 10.0 mi Calm Calm - N/A   Overcast
12:22 AM 51.8 °F 48.2 °F 88% 30.30 in 10.0 mi Calm Calm - N/A   Mostly Cloudy
12:34 AM 50.0 °F 46.4 °F 87% 30.30 in 1.8 mi Calm Calm - N/A   Mostly Cloudy
12:51 AM 51.8 °F 48.2 °F 88% 30.30 in 1.0 mi Calm Calm - N/A   Scattered Clouds
12:53 AM 51.1 °F 48.9 °F 92% 30.30 in 0.8 mi Calm Calm - N/A   Scattered Clouds
1:02 AM 50.0 °F 46.4 °F 87% 30.30 in 1.0 mi Calm Calm - N/A   Mostly Cloudy
1:07 AM 51.8 °F 48.2 °F 88% 30.30 in 3.0 mi Calm Calm - N/A   Mostly Cloudy
1:39 AM 51.8 °F 48.2 °F 88% 30.29 in 1.8 mi Calm Calm - N/A   Mostly Cloudy
1:53 AM 53.1 °F 50.0 °F 89% 30.29 in 0.8 mi Calm Calm - N/A   Mostly Cloudy
2:03 AM 53.6 °F 50.0 °F 88% 30.29 in 2.0 mi Calm Calm - N/A   Mostly Cloudy
2:15 AM 53.6 °F 50.0 °F 88% 30.29 in 1.0 mi Calm Calm - N/A   Scattered Clouds
2:32 AM 51.8 °F 48.2 °F 88% 30.29 in 0.8 mi Calm Calm - N/A   Mist
2:35 AM 51.8 °F 48.2 °F 88% 30.29 in 1.2 mi Calm Calm - N/A   Scattered Clouds
2:41 AM 51.8 °F 48.2 °F 88% 30.28 in 2.0 mi Calm Calm - N/A   Scattered Clouds
2:48 AM 53.6 °F 50.0 °F 88% 30.28 in 1.0 mi Calm Calm - N/A   Scattered Clouds
2:53 AM 53.1 °F 50.0 °F 89% 30.28 in 1.2 mi Calm Calm - N/A   Scattered Clouds
3:02 AM 51.8 °F 48.2 °F 88% 30.28 in 2.5 mi Calm Calm - N/A   Scattered Clouds
3:09 AM 53.6 °F 50.0 °F 88% 30.28 in 1.2 mi Calm Calm - N/A   Mostly Cloudy
3:12 AM 53.6 °F 50.0 °F 88% 30.28 in 1.2 mi Calm Calm - N/A   Mostly Cloudy
3:18 AM 53.6 °F 50.0 °F 88% 30.28 in 5.0 mi Calm Calm - N/A   Mostly Cloudy
3:26 AM 53.6 °F 50.0 °F 88% 30.28 in 1.5 mi Calm Calm - N/A   Overcast
3:31 AM 51.8 °F 48.2 °F 88% 30.28 in 0.8 mi Calm Calm - N/A   Mist
3:42 AM 51.8 °F 48.2 °F 88% 30.28 in 1.5 mi Calm Calm - N/A   Overcast
3:53 AM 51.1 °F 48.0 °F 89% 30.28 in 1.5 mi Calm Calm - N/A   Mostly Cloudy
3:56 AM 51.8 °F 48.2 °F 88% 30.27 in 2.0 mi Calm Calm - N/A   Scattered Clouds
4:05 AM 53.6 °F 48.2 °F 82% 30.27 in 3.0 mi Calm Calm - N/A   Partly Cloudy
4:13 AM 53.6 °F 50.0 °F 88% 30.27 in 5.0 mi Calm Calm - N/A   Partly Cloudy
4:20 AM 51.8 °F 50.0 °F 94% 30.27 in 1.5 mi Calm Calm - N/A   Scattered Clouds
4:26 AM 51.8 °F 50.0 °F 94% 30.27 in 0.8 mi Calm Calm - N/A   Mostly Cloudy
4:35 AM 53.6 °F 50.0 °F 88% 30.27 in 1.0 mi Calm Calm - N/A   Mostly Cloudy
4:47 AM 53.6 °F 51.8 °F 94% 30.27 in 2.5 mi Calm Calm - N/A   Mostly Cloudy
4:48 AM 53.6 °F 50.0 °F 88% 30.27 in 5.0 mi Calm Calm - N/A   Mostly Cloudy
4:53 AM 53.1 °F 50.0 °F 89% 30.27 in 7.0 mi Calm Calm - N/A   Scattered Clouds
5:10 AM 51.8 °F 48.2 °F 88% 30.27 in 1.8 mi Calm Calm - N/A   Partly Cloudy
5:16 AM 51.8 °F 48.2 °F 88% 30.27 in 3.0 mi Calm Calm - N/A   Scattered Clouds
5:25 AM 51.8 °F 48.2 °F 88% 30.27 in 2.5 mi Calm Calm - N/A   Mostly Cloudy
5:30 AM 50.0 °F 48.2 °F 94% 30.27 in 1.0 mi Calm Calm - N/A   Mist
5:39 AM 50.0 °F 48.2 °F 94% 30.27 in 0.8 mi Calm Calm - N/A   Mist
5:53 AM 51.1 °F 48.0 °F 89% 30.27 in 0.8 mi Calm Calm - N/A   Mist
6:16 AM 50.0 °F 46.4 °F 87% 30.27 in 1.0 mi Calm Calm - N/A   Mist
6:29 AM 51.8 °F 48.2 °F 88% 30.27 in 0.2 mi Calm Calm - N/A Fog Fog
6:35 AM 51.8 °F 48.2 °F 88% 30.27 in 0.5 mi Calm Calm - N/A Fog Fog
6:40 AM 51.8 °F 48.2 °F 88% 30.27 in 1.2 mi Calm Calm - N/A   Overcast
6:42 AM 51.8 °F 48.2 °F 88% 30.27 in 5.0 mi Calm Calm - N/A   Overcast
6:46 AM 51.8 °F 48.2 °F 88% 30.27 in 2.0 mi Calm Calm - N/A   Overcast
6:53 AM 52.0 °F 48.9 °F 89% 30.27 in 1.0 mi Calm Calm - N/A   Mist
6:58 AM 51.8 °F 48.2 °F 88% 30.27 in 2.0 mi Calm Calm - N/A   Overcast
7:05 AM 51.8 °F 48.2 °F 88% 30.27 in 10.0 mi Calm Calm - N/A   Overcast
7:22 AM 55.4 °F 53.6 °F 94% 30.27 in 10.0 mi Calm Calm - N/A   Scattered Clouds
7:53 AM 64.0 °F 60.1 °F 87% 30.26 in 10.0 mi Calm Calm - N/A   Clear
8:53 AM 72.0 °F 64.9 °F 78% 30.26 in 10.0 mi SW 8.1 mph - N/A   Clear
9:53 AM 73.9 °F 64.9 °F 73% 30.26 in 10.0 mi SSW 9.2 mph - N/A   Partly Cloudy
10:53 AM 75.0 °F 63.0 °F 66% 30.25 in 10.0 mi SW 9.2 mph - N/A   Clear
11:53 AM 77.0 °F 63.0 °F 62% 30.23 in 10.0 mi SSW 12.7 mph - N/A   Clear
12:53 PM 75.9 °F 62.1 °F 62% 30.22 in 10.0 mi SSW 11.5 mph - N/A   Partly Cloudy
1:53 PM 77.0 °F 62.1 °F 60% 30.20 in 10.0 mi SSW 13.8 mph - N/A   Partly Cloudy
2:53 PM 75.9 °F 62.1 °F 62% 30.19 in 10.0 mi SSW 13.8 mph - N/A   Partly Cloudy
3:48 PM 75.2 °F 64.4 °F 69% 30.18 in 10.0 mi SSW 15.0 mph 19.6 mph N/A   Mostly Cloudy
3:53 PM 75.9 °F 63.0 °F 64% 30.18 in 10.0 mi SSW 13.8 mph - N/A   Mostly Cloudy
4:39 PM 75.2 °F 64.4 °F 69% 30.17 in 10.0 mi South 13.8 mph - N/A   Scattered Clouds
4:53 PM 75.0 °F 64.0 °F 69% 30.17 in 10.0 mi South 13.8 mph - N/A   Scattered Clouds
5:53 PM 73.0 °F 64.9 °F 76% 30.17 in 10.0 mi SSW 11.5 mph - N/A   Clear
6:53 PM 69.1 °F 64.0 °F 84% 30.16 in 10.0 mi SSW 5.8 mph - N/A   Clear
7:53 PM 68.0 °F 64.0 °F 87% 30.16 in 10.0 mi SSW 4.6 mph - N/A   Clear
8:50 PM 68.0 °F 64.4 °F 88% 30.14 in 10.0 mi SSW 3.5 mph - N/A   Mostly Cloudy
8:53 PM 68.0 °F 64.9 °F 90% 30.14 in 10.0 mi SSW 3.5 mph - N/A   Mostly Cloudy
9:40 PM 68.0 °F 64.4 °F 88% 30.13 in 10.0 mi SSW 3.5 mph - N/A   Scattered Clouds
9:53 PM 68.0 °F 64.9 °F 90% 30.13 in 10.0 mi SSW 3.5 mph - N/A   Scattered Clouds
10:50 PM 66.2 °F 62.6 °F 88% 30.13 in 1.8 mi Calm Calm - N/A   Clear
10:53 PM 64.0 °F 62.1 °F 93% 30.12 in 1.2 mi Calm Calm - N/A   Clear
11:03 PM 64.4 °F 62.6 °F 94% 30.12 in 0.5 mi Calm Calm - N/A Fog Fog
11:23 PM 60.8 °F 57.2 °F 88% 30.12 in 0.2 mi Calm Calm - N/A Fog Fog
11:35 PM 60.8 °F 57.2 °F 88% 30.12 in 0.5 mi Calm Calm - N/A Fog Fog
11:53 PM 60.1 °F 57.0 °F 90% 30.11 in 1.0 mi Calm Calm - N/A   Mostly Cloudy